Location: Makanda
(37.6176°N, 89.2090°W)
Time: 12:30:53
(UTC+00:00)

Lacrosse 5 - Pass Details

Date: 23 September 2019
Orbit: 715 x 724 km, 57.0° (Epoch: 16 October)

Event Time Altitude Azimuth Distance (km) Brightness Sun altitude
Exits shadow 09:33:19 21° 337° (NNW) 1,592 3.6 -26.3°
Maximum altitude 09:36:28 47° 43° (NE) 941 2.7 -25.7°
Drops below altitude 10° 09:41:20 10° 117° (ESE) 2,195 4.9 -24.8°
Sets 09:43:47 0° 123° (ESE) 3,114 5.7 -24.4°
